| time (UTC) | temp F | wind direction | speed MPH | gust MPH | rain 1hr in | rain 24hr in | rain mn in | humidity % | barometer mb |
| 20260505194125 | 57 | 90 | 2.0 | 4.0 | 0.00 | 0.23 | 0.00 | 86 | 1009.2 |
| 20260505193628 | 57 | 68 | 2.0 | 6.0 | 0.00 | 0.23 | 0.00 | 86 | 1009.3 |
| 20260505193122 | 57 | 113 | 3.0 | 4.0 | 0.00 | 0.23 | 0.00 | 86 | 1009.3 |
| 20260505192628 | 57 | 68 | 3.0 | 4.0 | 0.00 | 0.23 | 0.00 | 86 | 1009.2 |
| 20260505192122 | 57 | 113 | 3.0 | 4.0 | 0.00 | 0.23 | 0.00 | 86 | 1009.1 |
| 20260505191622 | 57 | 113 | 2.0 | 6.0 | 0.00 | 0.23 | 0.00 | 86 | 1009.0 |
| 20260505191125 | 57 | 113 | 3.0 | 6.0 | 0.00 | 0.23 | 0.00 | 86 | 1009.1 |
| 20260505190625 | 57 | 113 | 3.0 | 6.0 | 0.00 | 0.23 | 0.00 | 86 | 1008.9 |
| 20260505190122 | 57 | 45 | 2.0 | 6.0 | 0.00 | 0.23 | 0.00 | 86 | 1008.8 |
| 20260505185622 | 57 | 68 | 3.0 | 6.0 | 0.00 | 0.23 | 0.00 | 86 | 1008.7 |
| 20260505185122 | 57 | 68 | 3.0 | 6.0 | 0.00 | 0.23 | 0.00 | 85 | 1009.0 |
| 20260505184625 | 57 | 68 | 3.0 | 6.0 | 0.00 | 0.23 | 0.00 | 85 | 1008.9 |
| 20260505184122 | 57 | 113 | 3.0 | 6.0 | 0.00 | 0.23 | 0.00 | 85 | 1008.9 |
| 20260505183625 | 57 | 113 | 4.0 | 6.0 | 0.00 | 0.23 | 0.00 | 85 | 1008.7 |
| 20260505183122 | 57 | 90 | 3.0 | 4.0 | 0.00 | 0.23 | 0.00 | 85 | 1009.0 |
| 20260505182622 | 58 | 90 | 2.0 | 3.0 | 0.00 | 0.23 | 0.00 | 85 | 1008.9 |
| 20260505182128 | 58 | 90 | 1.0 | 4.0 | 0.00 | 0.23 | 0.00 | 85 | 1009.0 |
| 20260505181622 | 58 | 90 | 3.0 | 6.0 | 0.00 | 0.23 | 0.00 | 84 | 1009.1 |
| 20260505181125 | 58 | 135 | 4.0 | 6.0 | 0.00 | 0.23 | 0.00 | 84 | 1009.0 |
| 20260505180622 | 58 | 90 | 3.0 | 6.0 | 0.00 | 0.23 | 0.00 | 84 | 1009.0 |
| 20260505180122 | 58 | 113 | 3.0 | 8.0 | 0.00 | 0.23 | 0.00 | 84 | 1009.0 |
| 20260505175628 | 58 | 90 | 3.0 | 9.0 | 0.00 | 0.23 | 0.00 | 83 | 1008.9 |
| 20260505175125 | 58 | 113 | 7.0 | 11.0 | 0.00 | 0.23 | 0.00 | 83 | 1009.0 |
| 20260505174625 | 59 | 113 | 5.0 | 8.0 | 0.00 | 0.23 | 0.00 | 82 | 1009.1 |
| 20260505174125 | 59 | 90 | 6.0 | 8.0 | 0.00 | 0.23 | 0.00 | 82 | 1008.9 |
| 20260505173628 | 59 | 113 | 4.0 | 8.0 | 0.00 | 0.23 | 0.00 | 82 | 1008.8 |
| 20260505173125 | 59 | 90 | 3.0 | 9.0 | 0.00 | 0.23 | 0.00 | 82 | 1009.1 |
| 20260505172622 | 59 | 68 | 5.0 | 9.0 | 0.00 | 0.23 | 0.00 | 81 | 1009.0 |
| 20260505172125 | 59 | 68 | 3.0 | 8.0 | 0.00 | 0.23 | 0.00 | 81 | 1009.1 |
| 20260505171622 | 59 | 68 | 5.0 | 9.0 | 0.00 | 0.23 | 0.00 | 81 | 1009.2 |
| 20260505171131 | 59 | 90 | 4.0 | 8.0 | 0.00 | 0.23 | 0.00 | 81 | 1009.3 |
| 20260505170622 | 59 | 68 | 3.0 | 9.0 | 0.00 | 0.23 | 0.00 | 81 | 1009.1 |
| 20260505170125 | 59 | 158 | 6.0 | 10.0 | 0.00 | 0.23 | 0.00 | 81 | 1009.2 |
| 20260505165625 | 59 | 113 | 6.0 | 10.0 | 0.00 | 0.23 | 0.00 | 81 | 1009.2 |
| 20260505165122 | 59 | 113 | 6.0 | 10.0 | 0.00 | 0.23 | 0.00 | 80 | 1009.2 |
| 20260505164625 | 59 | 135 | 7.0 | 9.0 | 0.00 | 0.23 | 0.00 | 80 | 1009.1 |
| 20260505164125 | 59 | 113 | 6.0 | 9.0 | 0.00 | 0.23 | 0.00 | 79 | 1009.2 |
| 20260505163625 | 60 | 113 | 6.0 | 9.0 | 0.00 | 0.23 | 0.00 | 79 | 1009.4 |
| 20260505163122 | 60 | 90 | 5.0 | 9.0 | 0.00 | 0.23 | 0.00 | 79 | 1009.3 |
| 20260505162625 | 60 | 113 | 6.0 | 12.0 | 0.00 | 0.23 | 0.00 | 79 | 1009.5 |
| 20260505162122 | 60 | 90 | 6.0 | 12.0 | 0.00 | 0.23 | 0.00 | 77 | 1009.5 |
| 20260505161622 | 61 | 113 | 3.0 | 10.0 | 0.00 | 0.23 | 0.00 | 78 | 1009.3 |
| 20260505161122 | 60 | 135 | 3.0 | 12.0 | 0.00 | 0.23 | 0.00 | 78 | 1009.4 |
| 20260505160622 | 60 | 113 | 6.0 | 10.0 | 0.00 | 0.23 | 0.00 | 78 | 1009.4 |
| 20260505160125 | 59 | 113 | 6.0 | 10.0 | 0.00 | 0.23 | 0.00 | 78 | 1009.2 |
| 20260505153122 | 60 | 113 | 6.0 | 11.0 | 0.00 | 0.23 | 0.00 | 76 | 1009.4 |
| 20260505152622 | 60 | 113 | 5.0 | 11.0 | 0.00 | 0.23 | 0.00 | 76 | 1009.5 |
| 20260505152122 | 60 | 135 | 6.0 | 10.0 | 0.00 | 0.23 | 0.00 | 76 | 1009.4 |
| 20260505151622 | 60 | 90 | 5.0 | 10.0 | 0.00 | 0.23 | 0.00 | 77 | 1009.2 |
| 20260505151122 | 60 | 90 | 6.0 | 9.0 | 0.00 | 0.23 | 0.00 | 77 | 1009.4 |
| 20260505150622 | 60 | 113 | 5.0 | 10.0 | 0.00 | 0.23 | 0.00 | 77 | 1009.3 |
| 20260505150128 | 59 | 113 | 6.0 | 10.0 | 0.00 | 0.23 | 0.00 | 77 | 1009.3 |
| 20260505140625 | 62 | 113 | 3.0 | 8.0 | 0.00 | 0.23 | 0.00 | 74 | 1009.6 |
| 20260505140122 | 62 | 158 | 5.0 | 6.0 | 0.00 | 0.23 | 0.00 | 74 | 1009.6 |
| 20260505130122 | 59 | 113 | 3.0 | 6.0 | 0.00 | 0.23 | 0.00 | 83 | 1009.9 |
| 20260505124622 | 59 | 113 | 3.0 | 6.0 | 0.00 | 0.23 | 0.00 | 82 | 1010.1 |
| 20260505124122 | 60 | 113 | 3.0 | 6.0 | 0.00 | 0.23 | 0.00 | 81 | 1009.9 |
| 20260505123622 | 60 | 135 | 3.0 | 6.0 | 0.00 | 0.23 | 0.00 | 79 | 1009.9 |
| 20260505123125 | 61 | 113 | 4.0 | 6.0 | 0.00 | 0.23 | 0.00 | 77 | 1009.9 |
| 20260505122625 | 60 | 113 | 1.0 | 4.0 | 0.00 | 0.23 | 0.00 | 74 | 1009.9 |
| 20260505122125 | 59 | 158 | 3.0 | 3.0 | 0.00 | 0.23 | 0.00 | 75 | 1010.1 |
| 20260505121625 | 61 | 135 | 0.0 | 4.0 | 0.00 | 0.23 | 0.00 | 78 | 1009.9 |
| 20260505121125 | 61 | 135 | 3.0 | 4.0 | 0.00 | 0.23 | 0.00 | 76 | 1010.1 |
| 20260505120622 | 60 | 68 | 0.0 | 2.0 | 0.00 | 0.23 | 0.00 | 74 | 1010.0 |
| 20260505120122 | 60 | 90 | 0.0 | 2.0 | 0.00 | 0.23 | 0.00 | 75 | 1010.1 |
| 20260505115622 | 61 | 113 | 0.0 | 4.0 | 0.00 | 0.23 | 0.00 | 76 | 1010.1 |
| 20260505115122 | 61 | 113 | 1.0 | 2.0 | 0.00 | 0.23 | 0.00 | 76 | 1010.0 |
| 20260505114625 | 60 | 68 | 0.0 | 3.0 | 0.00 | 0.23 | 0.00 | 76 | 1010.0 |
| 20260505114131 | 60 | 113 | 0.0 | 6.0 | 0.00 | 0.23 | 0.00 | 77 | 1010.1 |
| 20260505113622 | 61 | 113 | 3.0 | 6.0 | 0.00 | 0.23 | 0.00 | 76 | 1009.9 |
| 20260505113122 | 60 | 113 | 0.0 | 6.0 | 0.00 | 0.23 | 0.00 | 75 | 1010.1 |
| 20260505112625 | 60 | 90 | 4.0 | 6.0 | 0.00 | 0.23 | 0.00 | 76 | 1010.1 |
| 20260505112125 | 59 | 68 | 2.0 | 3.0 | 0.00 | 0.23 | 0.00 | 78 | 1010.0 |
| 20260505111625 | 60 | 90 | 0.0 | 3.0 | 0.00 | 0.23 | 0.00 | 79 | 1010.0 |
| 20260505111122 | 60 | 90 | 0.0 | 3.0 | 0.00 | 0.23 | 0.00 | 80 | 1010.0 |
| 20260505110625 | 60 | 45 | 0.0 | 1.0 | 0.00 | 0.23 | 0.00 | 82 | 1010.0 |
| 20260505110122 | 59 | 113 | 0.0 | 2.0 | 0.00 | 0.23 | 0.00 | 83 | 1010.0 |
| 20260505102128 | 60 | 113 | 0.0 | 2.0 | 0.00 | 0.23 | 0.00 | 81 | 1009.9 |
| 20260505101622 | 59 | 158 | 1.0 | 3.0 | 0.00 | 0.23 | 0.00 | 82 | 1010.1 |
| 20260505101125 | 59 | 270 | 1.0 | 2.0 | 0.00 | 0.23 | 0.00 | 83 | 1009.9 |
| 20260505100625 | 58 | 90 | 0.0 | 3.0 | 0.00 | 0.23 | 0.00 | 85 | 1010.0 |
| 20260505100128 | 58 | 113 | 0.0 | 2.0 | 0.00 | 0.23 | 0.00 | 86 | 1009.8 |
| 20260505095625 | 57 | 90 | 1.0 | 2.0 | 0.00 | 0.23 | 0.00 | 88 | 1009.7 |
| 20260505095122 | 57 | 68 | 0.0 | 1.0 | 0.00 | 0.23 | 0.00 | 88 | 1010.0 |
| 20260505094622 | 58 | 0 | 0.0 | 3.0 | 0.00 | 0.23 | 0.00 | 88 | 1010.0 |
| 20260505094125 | 59 | 293 | 2.0 | 3.0 | 0.00 | 0.23 | 0.00 | 88 | 1009.9 |
| 20260505093625 | 59 | 270 | 2.0 | 3.0 | 0.00 | 0.23 | 0.00 | 88 | 1010.0 |
| 20260505093125 | 58 | 293 | 2.0 | 3.0 | 0.00 | 0.23 | 0.00 | 88 | 1010.0 |
| 20260505092622 | 57 | 248 | 0.0 | 1.0 | 0.00 | 0.23 | 0.00 | 89 | 1010.0 |
| 20260505092122 | 58 | 248 | 0.0 | 1.0 | 0.00 | 0.23 | 0.00 | 89 | 1010.0 |
| 20260505091625 | 58 | 248 | 0.0 | 2.0 | 0.00 | 0.23 | 0.00 | 89 | 1009.9 |
| 20260505091125 | 58 | 293 | 1.0 | 3.0 | 0.00 | 0.23 | 0.00 | 90 | 1009.6 |
| 20260505090622 | 58 | 270 | 3.0 | 4.0 | 0.00 | 0.23 | 0.00 | 90 | 1009.9 |
| 20260505090122 | 58 | 270 | 3.0 | 4.0 | 0.00 | 0.23 | 0.00 | 89 | 1009.7 |
| 20260505085625 | 57 | 270 | 3.0 | 4.0 | 0.00 | 0.23 | 0.00 | 89 | 1009.7 |
| 20260505085122 | 58 | 293 | 3.0 | 6.0 | 0.00 | 0.23 | 0.00 | 89 | 1009.8 |
| 20260505084628 | 58 | 270 | 4.0 | 6.0 | 0.00 | 0.23 | 0.00 | 89 | 1009.8 |
| 20260505084125 | 58 | 270 | 0.0 | 2.0 | 0.00 | 0.23 | 0.00 | 89 | 1009.7 |
| 20260505083625 | 58 | 270 | 0.0 | 2.0 | 0.00 | 0.23 | 0.00 | 89 | 1009.6 |
| 20260505083125 | 57 | 0 | 0.0 | 3.0 | 0.00 | 0.23 | 0.00 | 89 | 1009.5 |
| 20260505082625 | 58 | 270 | 3.0 | 4.0 | 0.00 | 0.23 | 0.00 | 89 | 1009.6 |
| 20260505082128 | 58 | 270 | 2.0 | 4.0 | 0.00 | 0.23 | 0.00 | 89 | 1009.5 |
| 20260505081625 | 57 | 293 | 1.0 | 6.0 | 0.00 | 0.23 | 0.00 | 89 | 1009.6 |
| 20260505081125 | 57 | 225 | 4.0 | 6.0 | 0.00 | 0.23 | 0.00 | 89 | 1009.6 |
| 20260505080622 | 57 | 248 | 4.0 | 6.0 | 0.00 | 0.23 | 0.00 | 89 | 1009.5 |
| 20260505080125 | 58 | 270 | 3.0 | 3.0 | 0.00 | 0.23 | 0.00 | 89 | 1009.6 |
| 20260505075625 | 58 | 135 | 1.0 | 3.0 | 0.00 | 0.23 | 0.00 | 90 | 1009.4 |
| 20260505075122 | 58 | 135 | 0.0 | 1.0 | 0.00 | 0.23 | 0.00 | 90 | 1009.5 |
| 20260505074625 | 57 | 113 | 0.0 | 2.0 | 0.01 | 0.23 | 0.00 | 90 | 1009.4 |
| 20260505074125 | 57 | 293 | 0.0 | 3.0 | 0.01 | 0.23 | 0.00 | 90 | 1009.4 |
| 20260505073622 | 57 | 270 | 2.0 | 3.0 | 0.01 | 0.23 | 0.00 | 90 | 1009.5 |
| 20260505073128 | 57 | 315 | 2.0 | 3.0 | 0.01 | 0.23 | 0.00 | 90 | 1009.4 |
| 20260505072622 | 57 | 248 | 1.0 | 3.0 | 0.01 | 0.23 | 0.00 | 90 | 1009.4 |
| 20260505072131 | 57 | 270 | 2.0 | 3.0 | 0.01 | 0.23 | 0.00 | 90 | 1009.4 |
| 20260505071625 | 57 | 135 | 0.0 | 4.0 | 0.01 | 0.23 | 0.00 | 91 | 1009.4 |
| 20260505071122 | 57 | 113 | 3.0 | 6.0 | 0.01 | 0.23 | 0.00 | 90 | 1009.4 |
| 20260505070625 | 57 | 135 | 3.0 | 8.0 | 0.01 | 0.23 | 0.00 | 91 | 1009.2 |
| 20260505070122 | 56 | 293 | 6.0 | 12.0 | 0.01 | 0.23 | 0.00 | 91 | 1009.0 |
| 20260505065622 | 56 | 338 | 6.0 | 11.0 | 0.01 | 0.23 | 0.00 | 91 | 1009.2 |
| 20260505065125 | 57 | 293 | 6.0 | 13.0 | 0.01 | 0.23 | 0.00 | 91 | 1009.4 |
| 20260505064625 | 56 | 248 | 9.0 | 12.0 | 0.00 | 0.22 | 0.00 | 91 | 1009.1 |
| 20260505064125 | 56 | 270 | 6.0 | 9.0 | 0.00 | 0.22 | 0.00 | 91 | 1009.0 |
| 20260505063628 | 57 | 248 | 3.0 | 4.0 | 0.00 | 0.22 | 0.00 | 91 | 1008.9 |
| 20260505063125 | 57 | 113 | 3.0 | 6.0 | 0.00 | 0.22 | 0.00 | 91 | 1008.7 |
| 20260505062622 | 57 | 135 | 3.0 | 8.0 | 0.00 | 0.22 | 0.00 | 91 | 1008.5 |
| 20260505062128 | 56 | 113 | 6.0 | 8.0 | 0.00 | 0.22 | 0.00 | 91 | 1008.7 |
| 20260505061628 | 57 | 90 | 4.0 | 6.0 | 0.00 | 0.22 | 0.00 | 91 | 1008.7 |
| 20260505061125 | 57 | 90 | 4.0 | 6.0 | 0.00 | 0.22 | 0.00 | 91 | 1008.5 |
| 20260505060625 | 57 | 90 | 3.0 | 6.0 | 0.00 | 0.22 | 0.00 | 91 | 1008.6 |
| 20260505060122 | 57 | 68 | 4.0 | 6.0 | 0.00 | 0.22 | 0.00 | 92 | 1008.6 |
| 20260505055625 | 56 | 68 | 5.0 | 6.0 | 0.00 | 0.22 | 0.00 | 92 | 1008.5 |
| 20260505055128 | 56 | 90 | 5.0 | 8.0 | 0.00 | 0.22 | 0.00 | 92 | 1008.3 |
| 20260505054622 | 56 | 113 | 6.0 | 8.0 | 0.00 | 0.22 | 0.00 | 92 | 1008.5 |
| 20260505054122 | 56 | 90 | 2.0 | 3.0 | 0.00 | 0.22 | 0.00 | 92 | 1008.3 |
| 20260505053625 | 56 | 68 | 0.0 | 2.0 | 0.00 | 0.22 | 0.00 | 92 | 1008.3 |
| 20260505053122 | 56 | 68 | 1.0 | 3.0 | 0.00 | 0.22 | 0.00 | 92 | 1008.3 |
| 20260505052625 | 55 | 0 | 1.0 | 3.0 | 0.00 | 0.22 | 0.00 | 92 | 1008.3 |
| 20260505052122 | 56 | 293 | 3.0 | 3.0 | 0.00 | 0.22 | 0.00 | 92 | 1008.2 |
| 20260505051622 | 56 | 270 | 1.0 | 4.0 | 0.00 | 0.22 | 0.00 | 92 | 1008.3 |
| 20260505051122 | 56 | 270 | 4.0 | 4.0 | 0.00 | 0.22 | 0.00 | 92 | 1008.2 |
| 20260505050622 | 56 | 270 | 4.0 | 4.0 | 0.00 | 0.22 | 0.00 | 92 | 1007.9 |
| 20260505041645 | 56 | 315 | 0.0 | 1.0 | 0.01 | 0.22 | 0.00 | 92 | 1007.9 |
| 20260505041148 | 56 | 315 | 0.0 | 1.0 | 0.01 | 0.22 | 0.00 | 92 | 1007.9 |
| 20260505040648 | 56 | 315 | 1.0 | 6.0 | 0.01 | 0.22 | 0.00 | 92 | 1008.0 |
| 20260505040148 | 56 | 248 | 4.0 | 6.0 | 0.01 | 0.22 | 0.00 | 92 | 1008.2 |
| 20260505035651 | 56 | 248 | 4.0 | 6.0 | 0.01 | 0.22 | 0.00 | 92 | 1008.1 |
| 20260505035148 | 56 | 248 | 6.0 | 8.0 | 0.01 | 0.22 | 0.00 | 91 | 1008.3 |
| 20260505034648 | 56 | 270 | 6.0 | 8.0 | 0.00 | 0.21 | 0.00 | 91 | 1008.2 |
| 20260505034145 | 56 | 270 | 6.0 | 8.0 | 0.00 | 0.21 | 0.00 | 91 | 1008.3 |
| 20260505033645 | 56 | 270 | 6.0 | 8.0 | 0.00 | 0.21 | 0.00 | 91 | 1008.1 |
| 20260505033151 | 56 | 248 | 6.0 | 8.0 | 0.00 | 0.21 | 0.00 | 91 | 1008.2 |
| 20260505032645 | 56 | 248 | 4.0 | 6.0 | 0.00 | 0.21 | 0.00 | 91 | 1008.1 |
| 20260505022202 | 56 | 113 | 0.0 | 0.0 | 0.10 | 0.21 | 0.00 | 89 | 1009.5 |
| 20260505021659 | 56 | 113 | 0.0 | 0.0 | 0.10 | 0.21 | 0.00 | 89 | 1009.5 |
| 20260505021156 | 56 | 113 | 0.0 | 1.0 | 0.10 | 0.21 | 0.00 | 89 | 1009.5 |
| 20260505020702 | 56 | 113 | 0.0 | 2.0 | 0.09 | 0.20 | 0.00 | 89 | 1009.2 |
| 20260505020159 | 56 | 270 | 6.0 | 8.0 | 0.00 | 0.10 | 0.00 | 86 | 1009.6 |
| 20260505015656 | 56 | 270 | 6.0 | 8.0 | 0.00 | 0.10 | 0.00 | 86 | 1009.6 |
| 20260505015156 | 56 | 270 | 6.0 | 8.0 | 0.00 | 0.10 | 0.00 | 86 | 1009.3 |
| 20260505004611 | 57 | 113 | 9.0 | 13.0 | 0.01 | 0.10 | 0.00 | 83 | 1009.6 |
| 20260505004108 | 57 | 113 | 9.0 | 13.0 | 0.01 | 0.10 | 0.00 | 83 | 1009.6 |
| 20260505003614 | 57 | 113 | 9.0 | 13.0 | 0.01 | 0.10 | 0.00 | 83 | 1009.6 |
| 20260505001629 | 57 | 135 | 7.0 | 10.0 | 0.01 | 0.10 | 0.00 | 82 | 1010.5 |
| 20260505001129 | 57 | 135 | 7.0 | 10.0 | 0.01 | 0.10 | 0.00 | 82 | 1010.5 |
| 20260505000629 | 57 | 135 | 7.0 | 10.0 | 0.01 | 0.10 | 0.00 | 82 | 1010.6 |
| 20260505000138 | 57 | 135 | 7.0 | 10.0 | 0.02 | 0.10 | 0.00 | 82 | 1010.6 |
| 20260504235629 | 58 | 113 | 6.0 | 12.0 | 0.02 | 0.10 | 0.00 | 80 | 1010.6 |
| 20260504235132 | 58 | 113 | 9.0 | 15.0 | 0.01 | 0.09 | 0.00 | 78 | 1010.8 |
| 20260504234629 | 58 | 113 | 8.0 | 15.0 | 0.01 | 0.09 | 0.00 | 77 | 1010.8 |
| 20260504234129 | 58 | 113 | 10.0 | 15.0 | 0.01 | 0.09 | 0.00 | 77 | 1010.8 |
| 20260504233638 | 59 | 113 | 9.0 | 15.0 | 0.02 | 0.09 | 0.00 | 76 | 1010.8 |
| 20260504233129 | 59 | 113 | 6.0 | 15.0 | 0.03 | 0.09 | 0.00 | 75 | 1010.7 |
| 20260504232635 | 59 | 113 | 7.0 | 19.0 | 0.03 | 0.09 | 0.00 | 74 | 1010.9 |
| 20260504232129 | 59 | 68 | 12.0 | 19.0 | 0.03 | 0.09 | 0.00 | 74 | 1010.6 |
| 20260504231629 | 59 | 113 | 10.0 | 19.0 | 0.04 | 0.09 | 0.00 | 74 | 1010.8 |
| 20260504231132 | 59 | 135 | 12.0 | 19.0 | 0.04 | 0.09 | 0.00 | 75 | 1010.8 |
| 20260504230629 | 59 | 90 | 9.0 | 19.0 | 0.04 | 0.09 | 0.00 | 75 | 1010.8 |
| 20260504230135 | 58 | 90 | 9.0 | 13.0 | 0.04 | 0.08 | 0.00 | 77 | 1011.2 |
| 20260504225629 | 58 | 113 | 8.0 | 15.0 | 0.04 | 0.08 | 0.00 | 77 | 1011.3 |
| 20260504225135 | 57 | 113 | 6.0 | 12.0 | 0.04 | 0.08 | 0.00 | 80 | 1011.7 |
| 20260504224629 | 57 | 68 | 6.0 | 12.0 | 0.04 | 0.08 | 0.00 | 81 | 1011.6 |
| 20260504224129 | 56 | 45 | 7.0 | 13.0 | 0.04 | 0.08 | 0.00 | 83 | 1011.5 |
| 20260504223632 | 56 | 45 | 7.0 | 13.0 | 0.03 | 0.07 | 0.00 | 84 | 1011.4 |
| 20260504223129 | 56 | 90 | 9.0 | 13.0 | 0.02 | 0.05 | 0.00 | 84 | 1011.4 |
| 20260504222632 | 56 | 113 | 9.0 | 12.0 | 0.03 | 0.05 | 0.00 | 83 | 1011.7 |
| 20260504222129 | 57 | 68 | 4.0 | 8.0 | 0.03 | 0.05 | 0.00 | 82 | 1012.1 |
| 20260504221632 | 57 | 135 | 3.0 | 6.0 | 0.03 | 0.04 | 0.00 | 82 | 1012.0 |
| 20260504221129 | 57 | 113 | 4.0 | 6.0 | 0.03 | 0.04 | 0.00 | 80 | 1012.3 |
| 20260504220629 | 58 | 113 | 3.0 | 8.0 | 0.03 | 0.04 | 0.00 | 77 | 1012.0 |
| 20260504220132 | 59 | 135 | 6.0 | 11.0 | 0.02 | 0.03 | 0.00 | 74 | 1012.2 |
| 20260504215629 | 60 | 113 | 4.0 | 11.0 | 0.02 | 0.03 | 0.00 | 71 | 1012.0 |
| 20260504215135 | 60 | 68 | 6.0 | 15.0 | 0.02 | 0.03 | 0.00 | 70 | 1011.9 |
| 20260504214629 | 58 | 68 | 6.0 | 9.0 | 0.02 | 0.03 | 0.00 | 75 | 1012.1 |
| 20260504214135 | 58 | 68 | 6.0 | 15.0 | 0.02 | 0.03 | 0.00 | 75 | 1012.2 |
| 20260504213629 | 58 | 23 | 8.0 | 17.0 | 0.02 | 0.03 | 0.00 | 76 | 1012.1 |
| 20260504213129 | 58 | 68 | 9.0 | 22.0 | 0.02 | 0.03 | 0.00 | 77 | 1011.9 |
| 20260504212629 | 58 | 90 | 11.0 | 18.0 | 0.01 | 0.02 | 0.00 | 74 | 1012.2 |
| 20260504212135 | 58 | 90 | 11.0 | 18.0 | 0.01 | 0.02 | 0.00 | 74 | 1012.3 |
| 20260504211635 | 59 | 113 | 10.0 | 18.0 | 0.00 | 0.01 | 0.00 | 72 | 1012.7 |
| 20260504211128 | 60 | 113 | 9.0 | 20.0 | 0.00 | 0.01 | 0.00 | 68 | 1012.8 |
| 20260504210631 | 61 | 90 | 12.0 | 20.0 | 0.00 | 0.01 | 0.00 | 66 | 1012.7 |
| 20260504210128 | 60 | 90 | 7.0 | 15.0 | 0.00 | 0.01 | 0.00 | 67 | 1012.8 |
| 20260504205628 | 60 | 90 | 9.0 | 15.0 | 0.00 | 0.01 | 0.00 | 66 | 1012.8 |
| 20260504205128 | 60 | 113 | 9.0 | 19.0 | 0.00 | 0.01 | 0.00 | 66 | 1013.1 |
| 20260504204635 | 60 | 113 | 11.0 | 15.0 | 0.01 | 0.01 | 0.00 | 67 | 1012.9 |
| 20260504204132 | 60 | 113 | 9.0 | 19.0 | 0.01 | 0.01 | 0.00 | 67 | 1012.9 |
| 20260504203628 | 60 | 90 | 9.0 | 17.0 | 0.01 | 0.01 | 0.00 | 67 | 1012.9 |
| 20260504203128 | 60 | 90 | 9.0 | 19.0 | 0.01 | 0.01 | 0.00 | 68 | 1012.9 |
| 20260504202632 | 60 | 113 | 11.0 | 22.0 | 0.01 | 0.01 | 0.00 | 68 | 1012.7 |
| 20260504202128 | 60 | 90 | 14.0 | 22.0 | 0.01 | 0.01 | 0.00 | 68 | 1012.5 |
| 20260504201628 | 60 | 90 | 10.0 | 17.0 | 0.01 | 0.01 | 0.00 | 69 | 1012.5 |
| 20260504201132 | 60 | 113 | 11.0 | 17.0 | 0.01 | 0.01 | 0.00 | 70 | 1012.5 |
| 20260504200629 | 59 | 113 | 9.0 | 15.0 | 0.01 | 0.01 | 0.00 | 71 | 1012.5 |
| 20260504200135 | 60 | 90 | 9.0 | 15.0 | 0.01 | 0.01 | 0.00 | 70 | 1012.5 |
| 20260504195635 | 59 | 113 | 9.0 | 15.0 | 0.01 | 0.01 | 0.00 | 71 | 1012.7 |
| 20260504195131 | 59 | 90 | 7.0 | 13.0 | 0.01 | 0.01 | 0.00 | 74 | 1012.4 |
| 20260504194631 | 59 | 113 | 8.0 | 15.0 | 0.00 | 0.00 | 0.00 | 71 | 1012.5 |